Other Public Products
Issued by NWS Grand Forks, ND

Home | Current Version | Previous Version | Text Only | Print | Product List | Glossary Off
Versions: 1 2 3 4 5 6 7 8 9 10 11 12 13 14 15 16 17 18 19 20 21 22 23 24 25 26 27 28 29 30 31 32 33 34 35 36 37 38 39 40 41 42 43 44 45 46 47 48 49 50

000
FPUS83 KFGF 241931
OPUFGF
PRAIRIE TO PINES WEATHER ROUNDUP
NATIONAL WEATHER SERVICE EASTERN NORTH DAKOTA/GRAND FORKS ND
200 PM CDT SAT JUN 24 2017

 **SATELLITE DATA USED TO AUGMENT SKY COVER AT AUTOMATED STATIONS**
 *****  WEATHER ACROSS EASTERN NORTH DAKOTA  *****

CITY           SKY/WX    TMP DP  RH WIND       PRES   REMARKS
GRAND FORKS    LGT RAIN  55  52  89 NW15G24   30.04R
GRAND FORKS AF CLOUDY    54  50  87 N15       30.06R
GRAND CITY NWS NOT AVBL
BUXTON           N/A    N/A N/A N/A CALM        N/A
DEVILS LAKE    CLOUDY    55  45  67 NW21G31   30.13R
FARGO          CLOUDY    60  44  55 W26G32    30.05S
WAHPETON ARPT  CLOUDY    63  39  42 NW21      30.07S
$$

 *****  WEATHER ACROSS CENTRAL AND WESTERN NORTH DAKOTA  *****

CITY           SKY/WX    TMP DP  RH WIND       PRES   REMARKS
JAMESTOWN      CLOUDY    57  44  62 NW24G32   30.13R
BISMARCK       PTSUNNY   62  39  42 N21G29    30.22S
MINOT          CLOUDY    58  42  55 NW16G25   30.22R
MINOT AFB      CLOUDY    57  42  57 N14       30.21R
GARRISON         N/A     57  40  52 N17       30.22R
WILLISTON      PTSUNNY   65  35  33 NW18G30   30.29S
DICKINSON      FAIR      63  29  27 N21G31    30.25S
HETTINGER      FAIR      67  30  25 NW26G35   30.27R
$$

 *****  OTHER OBSERVATIONS NORTHEAST NORTH DAKOTA  *****

CITY           SKY/WX    TMP DP  RH WIND       PRES   REMARKS
WALHALLA       NOT AVBL
LANGDON        CLOUDY    52  48  87 N25G31    30.10S FOG
CAVALIER       NOT AVBL
GRAFTON        CLOUDY    55  48  76 NW21G32   30.07R
CANDO          NOT AVBL
FORT TOTTEN      N/A     54  51  88 NW9       29.95S
ROLLA            N/A     50  50 100 N18       30.16R
RUGBY          NOT AVBL
 ***** THE ABOVE OBSERVATIONS ARE NON NWS ARE NOT QUALITY
        CONTROLLED AND MAY MIS-REPORT RAIN FOR SNOW...
$$

 *****  OTHER OBSERVATIONS SOUTHEAST NORTH DAKOTA *****

CITY           SKY/WX    TMP DP  RH WIND       PRES   REMARKS
COOPERSTOWN    CLOUDY    55  48  76 NW22G32   30.11S
VALLEY CITY    CLOUDY    57  45  62 NW18G29   30.12S
OAKES          NOT AVBL
GWINNER        MOCLDY    61  43  51 NW18      30.11S
SHEYENNE NWR     N/A     60  42  51 NW14      29.95S
BUFFALO          N/A     60  42  51 NW17G30     N/A
WYNDMERE       NOT AVBL
 ***** THE ABOVE OBSERVATIONS ARE NON NWS ARE NOT QUALITY
       CONTROLLED AND MAY MIS-REPORT RAIN FOR SNOW...
$$

  *****  WEATHER ACROSS NORTHERN MINNESOTA  *****

CITY           SKY/WX    TMP DP  RH WIND       PRES   REMARKS
FLAG ISLAND    CLOUDY    57  50  77 NW8       29.96R
WARROAD        PTSUNNY   57  52  82 W6        29.98S
ROSEAU         CLOUDY    59  52  77 W7        29.99R
HALLOCK        LGT RAIN  54  52  94 NW18G26   30.02R
THF RVR FALLS  CLOUDY    54  51  90 NW8       30.02S FOG
HALSTAD          N/A     58  50  75 NW17        N/A
FOSSTON        CLOUDY    55  46  71 W9        30.03S
BAUDETTE       FAIR      61  50  67 W10       29.96S
WASKISH        CLOUDY    63  46  55 W12       29.97R
CROOKSTON      LGT RAIN  54  54 100 NW18      30.04S
$$
  *****  WEATHER ACROSS CENTRAL AND WEST MINNESOTA  *****

CITY           SKY/WX    TMP DP  RH WIND       PRES   REMARKS
BEMIDJI        PTSUNNY   60  42  51 W16G23    29.99S
PARK RAPIDS    PTSUNNY   60  46  59 NW17      30.01R
WADENA         FAIR      57  48  72 NW10      30.03F
DETROIT LAKES  FAIR      59  45  58 NW17G24   30.05S
MOORHEAD       CLOUDY    57  43  58 W17G25    30.07R
FERGUS FALLS   FAIR      57  52  82 NW12      30.05S
ELBOW LAKE     LGT RAIN  53  48  84 NW13      30.08R
MORRIS MN      FAIR      63  45  51 NW18G25   30.07R
STAPLES        FAIR      57  45  62 NW9       30.02R
WHEATON        FAIR      63  41  45 NW15G23   30.10R
$$
  *****  WEATHER ELSEWHERE ACROSS MINNESOTA  *****

CITY           SKY/WX    TMP DP  RH WIND       PRES   REMARKS
DULUTH         CLOUDY    60  46  59 W12G20    29.94S
INTRNTL FALLS  CLOUDY    61  46  57 NW8G17    29.93S
ELY            CLOUDY    57  46  67 W16       29.91S
CLOQUET        PTSUNNY   59  43  55 NW9G20    29.96S
BRAINERD       CLOUDY    61  43  51 W10       30.00R
HIBBING        LGT RAIN  55  44  66 W9        29.95R
ALEXANDRIA     FAIR      61  45  55 NW18G24   30.05S
SAINT CLOUD    FAIR      61  42  49 NW18G30   30.02S
MINNEAPOLIS    FAIR      66  40  38 W23G35    30.00F
$$

  *****  WEATHER ACROSS SOUTH DAKOTA  *****

CITY           SKY/WX    TMP DP  RH WIND       PRES   REMARKS
SIOUX FALLS    FAIR      70  43  37 NW24G35   30.11R
BROOKINGS      PTSUNNY   62  42  47 NW22      30.12R
WATERTOWN      CLOUDY    62  41  46 NW17G26   30.12R
HURON          FAIR      68  41  37 NW21G33   30.14R
SISSETON         N/A     66  42  41 NW21G30   30.08S
ABERDEEN       CLOUDY    62  41  46 NW23G31   30.15R
MITCHELL       FAIR      74  36  25 NW32G45   30.14S
PIERRE         FAIR      70  37  29 NW24G36   30.18F
MOBRIDGE       FAIR      68  36  30 NW20G32   30.17R
RAPID CITY     FAIR      72  31  22 NW21G33   30.27S
$$

  *****  SOME WEATHER IN NEARBY STATES *****

CITY           SKY/WX    TMP DP  RH WIND       PRES   REMARKS
GLASGOW MT     FAIR      70  32  24 N12G17    30.30S
GREAT FALLS MT FAIR      70  34  26 VRB6      30.32F
CHEYENNE WY    FAIR      68  38  33 E5        30.36F
SCOTTSBLUFF NE CLOUDY    70  35  27 VRB5      30.31F
OMAHA NE       FAIR      80  38  22 NW20G28   30.16F
DES MOINES IA  PTSUNNY   75  41  29 W14       30.14S
DAVENPORT IA   FAIR      71  44  37 W16G30    30.10S
CHICAGO IL     PTSUNNY   74  47  38 W15G25    29.99S
EAU CLAIRE WI  CLOUDY    63  40  42 W15       29.98S
LA CROSSE WI   PTSUNNY   72  43  35 W15G25    30.01F
$$

  *****  SOME NATIONAL WEATHER *****

CITY           SKY/WX    TMP DP  RH WIND       PRES   REMARKS
LA GUARDIA NY  FAIR      85  56  37 NW18G28   29.74R
RALEIGH NC     PTSUNNY   88  71  57 CALM      29.94S HX  94
ATLANTA GA     PTSUNNY   82  73  74 VRB3      30.03S
NEW ORLEANS LA TSTM      75  71  87 SW13      30.05  FOG
OKLAHOMA CITY  FAIR      83  48  29 E12       30.20F
ALBUQUERQUE NM CLOUDY    83  53  35 S8        30.23F
SALT LAKE CITY FAIR      84  38  19 VRB3      30.20F
LOS ANGELES CA PTSUNNY   66  60  81 W9        29.91F
BOISE ID       FAIR      80  40  23 N8        30.18F
SEATTLE WA     FAIR      81  54  39 N10       30.12F
$$

*** WEATHER ACROSS MANITOBA...SASKATCHEWAN AND ONTARIO ***
                ***ONTARIO***

CITY           SKY/WX    TMP DP  RH WIND       PRES   REMARKS
GERALDTON      PTSUNNY   63  37  39 N10       29.87R
THUNDER BAY    PTSUNNY   63  54  72 NW7       29.87R
SIOUX LOOKOUT  TSTM      54  50  87 N5        29.92R
TORONTO        MOSUNNY   75  52  43 W18G38    29.80R
BIG TROUT LK   PTSUNNY   54  39  58 N6        30.03R
PICKLE LAKE    PTSUNNY   61  46  59 NE7       29.92S
DRYDEN         CLOUDY    54  52  94 W9        29.93R
KENORA         PTSUNNY   57  50  77 N8        29.96R
$$
                *** MANITOBA***

CITY           SKY/WX    TMP DP  RH WIND       PRES   REMARKS
BRANDON        PTSUNNY   57  43  58 N15G21    30.17R
DAUPHIN        CLOUDY    54  46  76 NW10      30.19R
ISLAND LAKE    PTSUNNY   61  36  39 NE12G20   30.09R
PILOT MOUND      N/A     50  41  71 NW21G28     N/A
THE PAS        PTSUNNY   52  46  82 W8        30.21S
THOMPSON       PTSUNNY   59  34  38 NW10      30.12R
WINNIPEG       LGT RAIN  52  48  87 N18G26    30.05R
LYNN LAKE      MOSUNNY   61  34  36 N16G23    30.15F
CHURCHILL      MOSUNNY   52  41  66 N10       30.08S
GILLAM         PTSUNNY   59  41  51 N14       30.07S
$$
                ***SASKATCHEWAN***

CITY           SKY/WX    TMP DP  RH WIND       PRES   REMARKS
ESTEVAN        PTSUNNY   61  39  44 N20G29    30.26S
KINDERSLEY     MOSUNNY   68  39  34 NW6       30.27F
LLOYDMINSTER   PTSUNNY   68  45  42 NW9       30.24S
PRINCE ALBERT  MOSUNNY   63  41  45 SW7       30.25F
REGINA         MOSUNNY   63  37  39 NW14G22   30.28S
YORKTON        CLOUDY    57  37  47 N16G23    30.23F



USA.gov is the U.S. government's official web portal to all federal, state and local government web resources and services.